Weather in Verhnyaya Inta

Russia / Komi Republic     65°59′08″N   60°19′23″E
temp.,
°C
wind,
m/s
gust,
m/s
humid.,
%
clouds,
%
prec.,
mm/h
press.,
hPa
HPBL,
m
11 may, tue
tue1100:00+5sw3485100 0.0 1025125
03:00+3sw3590100 0.0 1026128
06:00+6sw4567100 0.0 1026345
09:00+9sw5649100 0.0 1025624
12:00+11sw684176 0.0 10241597
15:00+11sw81142100 0.0 10232007
18:00+8wsw81180100 0.1 10241347
21:00+8w5972100 0.1 1024654
12 may, wed
wed1200:00+7wsw4782100 0.0 1023405
03:00+6sw4786100 0.1 1023304
06:00+6sw3890100 0.3 1021351
09:00+8sw61188100 0.6 1020537
12:00+9wsw91392100 1.1 1019572
15:00+10wsw81392100 1.2 1019609
18:00+11wnw7127899 0.4 1019366
21:00+8nw81279100 0.6 1022426
13 may, thu
thu1300:00+5nw6890100 0.0 1025537
03:00+4nnw468451 0.1 1028542
06:00+4nnw236972 0.0 1029615
09:00+7wnw345765 0.0 1029969
12:00+10w344719 0.0 10291275
15:00+11wsw344589 0.0 10281292
18:00+11ssw235294 0.0 1026551
21:00+9sse446575 0.0 102260
14 may, fri
fri1400:00+9s3381100 0.4 101931
03:00+13wsw8177098 1.1 1015388
06:00+15wsw8147393 0.1 1014588
09:00+18w9135181 0.1 10131245
12:00+20wnw9124438 0.0 10131886
15:00+17n6961100 0.4 1014918
18:00+12nne457789 0.4 1016443
21:00+9ne238451 0.4 101688
15 may, sat
sat1500:00+9nne2288100 0.2 101688
03:00+9ene339098 0.4 1015106
06:00+10e3487100 0.4 1014130
09:00+14ene2176100 0.7 1013319
12:00+15e2274100 0.4 1011247
15:00+10n227386 0.0 1015400
18:00
21:00+14wsw117716 0.8 100927